Wetbulb
45.84 45.55 44.99 44.11 43.47 42.95 42.78 43.29 44.20 45.22 46.23 46.83 47.27 47.68 47.63 47.62 46.90 42.45 37.38 37.93 36.73 31.33 32.63 36.32 36.47 32.66 31.85 29.66 23.63 28.95 26.03 27.93 26.99 23.12 22.52 20.44 20.61 24.48 23.38 26.68 27.61 25.48 25.44 25.11 27.11 23.11 22.89 38.99 37.79 35.53 37.89 40.60 41.14 39.85
45.69 45.23 44.55 44.14 43.83 43.06 42.98 43.55 44.35 45.35 46.04 46.21 47.05 47.23 47.23 47.46 46.82 43.43 36.44 39.92 39.83 34.81 33.48 36.20 37.32 37.98 37.51 35.92 31.16 30.31 28.83 29.07 28.42 22.67 21.97 23.49 22.79 22.54 24.11 19.94 29.65 23.63 26.85 26.22 29.60 27.15 37.16 40.44 39.03 41.35 42.67 40.30 39.81 39.60
45.56 44.86 44.36 44.08 43.70 43.32 43.11 43.53 44.31 44.97 45.56 45.76 46.30 46.90 47.16 46.71 46.32 44.75 38.04 36.95 39.55 36.12 34.54 33.44 33.75 38.74 40.47 37.83 37.40 29.11 29.43 33.40 30.96 30.96 25.05 24.50 24.34 23.47 19.23 22.33 25.60 28.34 32.95 27.24 30.31 35.39 36.45 38.13 40.90 41.42 40.57 40.45 41.11 41.75
45.10 44.72 44.17 43.96 43.84 43.57 43.38 43.79 44.02 44.68 45.22 45.58 45.94 45.91 46.18 46.14 45.86 43.02 36.79 37.42 36.62 33.94 28.59 31.36 39.95 37.67 40.49 40.17 38.76 36.90 35.19 34.78 32.94 30.65 27.19 25.95 23.89 28.65 24.28 27.61 27.41 29.29 34.91 32.42 31.35 34.94 37.02 40.30 38.42 39.55 40.18 41.09 41.15 42.33
44.91 44.42 43.83 43.80 43.78 43.48 43.39 43.48 43.76 44.34 45.09 45.56 46.03 46.10 46.22 45.20 44.36 41.49 38.26 37.93 38.55 33.82 28.66 30.14 36.13 39.73 40.51 39.70 37.63 36.93 35.01 31.86 28.74 26.84 26.63 25.68 28.17 29.31 29.15 29.38 30.76 37.21 34.81 32.28 30.72 37.06 37.03 37.28 39.61 40.64 39.85 40.35 41.27 42.24
44.80 44.33 43.78 43.69 43.67 43.45 43.27 43.29 43.71 44.54 45.08 45.23 45.62 45.95 45.76 45.18 42.65 35.94 35.30 38.41 40.97 37.15 32.75 26.63 34.49 36.26 38.93 38.64 37.28 36.11 34.61 31.29 29.80 27.66 27.11 28.20 31.37 30.55 26.46 27.60 35.05 38.41 39.41 39.41 37.25 40.24 40.19 40.30 41.00 41.78 40.83 42.07 42.54 42.52
44.73 44.38 43.81 43.71 43.52 43.54 43.30 43.34 43.57 44.33 44.82 45.18 45.18 45.08 44.85 44.36 39.27 32.66 31.40 36.22 42.55 37.64 32.47 28.10 29.34 35.98 39.21 37.32 35.34 34.06 33.86 31.25 29.67 28.07 28.18 28.51 31.85 33.22 30.85 28.97 36.07 38.96 39.79 39.83 40.52 40.49 39.20 40.36 39.67 42.35 42.58 42.79 43.93 44.61
44.62 44.22 43.83 43.50 43.55 43.59 43.31 43.51 43.55 43.92 44.37 44.73 44.59 44.75 44.57 43.92 41.28 36.17 37.06 43.43 40.53 36.10 35.03 27.75 28.27 30.94 36.56 31.93 31.87 34.01 30.57 30.18 30.32 28.65 29.70 29.55 33.06 36.35 30.66 36.75 37.98 39.00 39.49 40.35 41.28 42.49 41.91 42.28 42.64 42.55 43.92 44.48 43.66 41.68
44.32 44.09 43.49 43.32 43.60 43.55 43.64 43.68 43.91 44.09 44.28 44.47 44.67 43.72 38.29 35.48 32.94 34.75 43.39 41.96 37.86 35.94 29.25 29.76 26.77 25.48 35.96 33.35 33.56 32.66 31.81 26.12 31.21 27.75 30.95 30.87 29.95 29.93 35.48 36.76 37.93 37.82 39.40 40.25 43.10 44.47 42.91 41.84 42.21 43.04 44.70 44.67 41.72 41.21
44.17 43.74 43.37 43.23 43.42 43.58 43.60 43.70 43.83 44.01 44.18 44.39 40.15 33.82 26.88 33.78 42.31 40.38 34.65 31.57 32.16 32.15 33.04 29.02 29.96 28.09 32.46 30.59 29.85 29.75 29.40 24.08 24.85 29.06 32.66 27.20 29.28 36.23 38.09 39.21 39.96 41.03 41.65 43.01 41.36 42.03 42.37 42.17 43.07 43.44 43.55 45.37 44.07 42.63
43.99 43.74 43.42 43.41 43.77 43.74 43.74 43.74 43.82 43.76 43.54 37.89 32.36 29.55 36.11 40.94 34.16 29.36 21.63 23.87 24.62 26.58 30.24 30.41 30.34 28.84 33.63 28.71 27.54 29.41 26.09 25.85 24.69 26.33 25.94 25.01 23.42 32.45 38.38 39.22 42.18 42.76 42.58 43.06 43.46 42.98 44.88 43.93 43.54 43.56 45.21 44.82 42.89 42.36
43.92 43.95 43.62 43.47 43.76 43.90 43.85 43.69 43.45 40.99 39.02 39.07 37.15 38.37 35.58 30.91 24.24 22.21 17.71 26.31 26.43 26.88 29.99 30.37 30.49 31.91 31.88 32.55 29.60 28.73 26.38 26.51 22.76 27.57 23.02 20.83 27.73 34.00 36.51 38.22 41.53 43.03 42.57 42.60 42.91 42.46 43.09 44.92 45.75 45.54 45.20 44.32 43.92 42.65
43.65 43.59 43.61 43.49 43.56 43.94 43.88 43.81 43.69 43.83 42.74 39.03 34.35 27.67 26.54 23.22 19.97 20.50 17.12 24.80 24.42 29.24 31.32 32.13 30.34 32.29 32.14 31.80 28.57 29.57 26.30 23.03 29.75 26.70 26.19 24.11 31.24 35.21 36.79 38.44 40.48 43.37 43.00 42.90 42.45 42.90 42.87 43.16 45.16 45.18 44.68 44.04 44.12 43.13
43.72 43.45 43.35 43.37 43.65 43.73 43.72 43.54 43.68 42.81 38.90 31.76 28.37 23.69 21.12 18.27 25.44 26.77 27.24 28.15 29.88 30.83 32.31 32.11 30.92 30.86 30.67 29.54 26.81 27.93 28.63 28.84 24.46 19.28 16.77 25.58 32.70 35.29 36.51 37.69 40.33 40.30 42.77 42.68 42.57 42.61 42.09 42.37 43.50 44.69 44.45 43.80 43.08 41.74
43.46 43.64 43.66 43.36 43.78 43.85 43.57 43.66 43.97 41.84 37.44 32.22 30.10 21.65 25.60 28.33 29.02 30.75 31.80 31.66 31.44 32.78 31.60 30.03 29.48 30.38 28.48 28.52 27.70 27.40 25.66 24.13 25.59 21.63 23.55 31.46 34.75 36.10 36.53 37.27 38.80 40.12 41.26 42.78 43.24 43.09 42.74 42.53 42.66 43.08 44.06 44.64 43.21 39.79
43.47 43.34 41.75 43.63 43.64 43.79 43.38 41.39 38.95 37.98 35.36 32.96 31.41 27.86 29.94 29.23 27.59 29.12 30.26 30.66 33.01 31.95 32.52 31.68 29.03 28.07 27.20 28.86 28.07 25.43 25.12 23.53 26.17 29.13 32.19 34.61 36.33 35.63 35.13 37.56 39.07 40.20 41.07 42.08 43.95 44.12 43.91 42.78 42.37 43.00 43.73 43.23 42.70 42.41
43.24 40.81 43.52 43.58 43.38 42.64 42.23 37.17 34.82 31.47 30.68 30.66 29.46 32.33 30.47 30.90 29.90 29.52 30.40 31.11 32.52 31.40 27.34 27.56 26.38 27.21 29.11 26.28 26.30 28.01 26.78 27.89 30.40 32.52 33.60 35.57 36.65 34.26 33.69 34.49 36.74 38.68 40.12 41.78 43.66 44.34 44.02 44.27 44.16 44.02 42.56 43.26 42.53 42.69
41.55 42.58 43.58 43.20 41.17 39.20 36.08 35.43 31.60 27.07 27.58 30.49 29.34 30.48 30.93 30.98 30.69 30.81 31.31 31.32 31.16 29.16 28.57 27.13 28.06 25.69 24.45 26.29 24.33 25.70 28.27 30.87 30.89 32.07 32.60 35.49 35.52 34.65 34.44 34.48 37.28 36.90 37.78 39.34 40.51 41.15 42.77 43.05 42.72 42.52 42.97 43.44 43.64 42.56
42.23 42.27 42.90 42.76 39.30 34.15 29.73 30.27 32.42 27.49 29.05 30.60 30.92 31.61 31.73 31.76 32.82 32.96 32.81 32.77 32.28 32.12 30.57 27.98 26.48 23.59 24.21 26.24 26.88 27.21 28.16 29.27 29.19 30.66 31.84 33.23 33.79 33.96 33.93 34.56 35.89 35.93 36.11 37.32 38.45 38.29 39.91 43.08 43.37 43.74 43.50 42.91 41.61 42.62
42.91 42.36 42.00 41.54 39.40 30.46 26.12 30.22 33.65 29.69 27.65 29.79 31.43 30.95 31.10 31.33 32.69 32.63 32.69 32.59 31.70 30.59 28.69 25.21 26.60 26.71 26.76 28.15 30.29 30.66 30.95 31.86 30.60 29.21 29.60 31.41 32.59 33.11 33.36 33.57 33.97 35.54 36.00 36.64 37.92 35.88 41.11 42.55 42.81 43.09 43.10 42.51 41.61 41.71
41.27 41.08 40.88 38.92 33.30 32.24 29.79 30.45 29.63 29.23 30.17 28.68 31.16 30.77 29.62 31.29 30.18 30.27 30.54 32.63 30.41 29.06 27.92 28.52 28.52 30.79 31.62 31.84 32.76 32.87 32.55 32.59 31.10 30.64 30.42 29.85 32.29 32.00 32.45 33.82 34.14 35.55 35.47 35.35 35.51 37.76 38.05 39.38 40.14 41.87 43.11 41.81 42.08 41.56
39.76 40.45 34.84 36.67 32.97 33.26 27.55 29.89 27.21 30.41 27.88 27.87 29.25 29.80 28.39 26.83 27.31 29.03 31.39 29.41 28.47 29.84 30.61 30.52 31.34 32.21 31.91 32.38 33.50 34.10 34.63 34.19 33.59 32.63 28.65 29.31 30.96 31.20 31.36 32.53 32.68 33.19 34.46 35.74 36.17 36.70 37.84 39.30 41.31 41.53 41.32 38.17 39.53 39.37
39.79 37.12 33.95 32.90 28.68 25.15 22.66 31.08 28.55 28.23 25.27 26.87 27.34 27.31 26.25 27.21 29.00 32.38 28.32 29.04 29.65 32.06 33.35 33.31 33.83 34.30 34.02 34.78 35.06 35.31 35.51 34.59 33.07 32.94 32.82 32.17 32.13 32.13 32.20 32.67 32.84 32.75 32.73 35.28 36.69 36.91 37.08 36.34 38.15 37.21 36.94 38.00 36.97 34.54
38.95 33.24 28.16 28.39 24.74 26.54 30.06 29.12 28.57 26.90 25.91 26.09 25.16 25.24 26.68 26.84 29.75 28.08 26.59 27.46 29.41 31.99 32.59 33.48 33.64 32.88 33.10 33.75 32.84 33.67 35.05 34.87 33.92 33.51 33.91 32.99 32.36 33.33 33.39 33.43 33.86 34.42 35.11 36.04 36.75 37.33 37.55 35.36 33.83 37.16 33.98 33.65 33.11 33.09
29.95 29.24 25.67 26.21 28.63 29.28 27.38 25.86 25.11 24.30 18.31 24.20 24.71 23.21 24.54 29.01 24.76 23.83 26.04 27.56 28.49 30.43 31.62 32.16 32.66 33.08 32.08 31.64 31.82 33.20 35.14 34.38 32.92 32.10 33.55 33.94 33.84 33.81 34.05 34.65 35.12 35.90 36.62 35.31 32.33 32.22 33.55 32.80 31.54 32.73 33.79 33.27 34.66 34.72
24.27 28.50 26.57 27.39 27.10 22.99 23.87 18.23 16.38 18.33 22.80 20.28 25.60 26.89 26.35 24.66 20.92 19.66 25.44 27.71 28.59 30.07 29.80 31.28 31.87 31.41 32.06 33.24 32.62 32.13 33.39 35.22 34.81 33.38 34.51 36.31 35.77 34.84 33.72 31.94 31.59 32.97 36.27 36.18 30.61 30.84 34.21 32.94 32.06 33.49 33.17 33.75 33.24 33.27
23.11 25.88 29.72 29.92 28.77 28.20 23.74 23.92 25.56 22.39 15.55 16.54 24.45 20.80 19.45 13.27 16.88 24.05 26.63 28.43 29.45 32.19 33.88 34.46 34.48 33.76 33.34 33.26 34.37 34.77 35.02 35.95 35.25 33.89 34.23 34.98 36.44 36.89 35.61 33.38 32.55 34.34 36.22 36.59 34.27 31.16 32.99 33.48 31.82 32.30 32.84 33.82 33.64 34.00
26.02 28.60 24.19 26.70 24.18 26.48 19.68 20.74 17.56 16.81 20.55 24.93 25.24 16.87 18.70 19.58 22.02 27.01 28.44 28.87 30.81 33.04 34.05 34.82 35.47 35.34 34.71 35.09 35.42 34.11 32.90 32.51 32.04 33.26 33.07 33.65 33.98 34.15 34.39 34.64 35.48 31.91 34.58 33.07 30.58 31.81 33.56 34.15 34.09 34.09 34.33 34.31 34.71 34.00
25.10 28.26 27.39 15.96 20.53 22.20 20.55 21.36 23.14 26.06 26.67 28.23 22.13 21.21 23.63 26.93 27.04 27.51 28.58 29.20 31.18 31.76 30.43 30.90 32.07 32.01 33.31 32.89 32.34 32.23 31.53 30.59 30.24 27.58 27.60 28.18 27.80 30.54 31.78 31.98 32.11 32.13 30.04 31.73 32.85 33.86 34.22 33.97 33.64 33.62 34.00 33.62 33.82 33.64
26.13 29.60 23.55 16.82 18.03 18.68 22.18 25.80 25.40 26.24 25.16 27.41 27.28 27.21 27.10 26.81 27.82 27.44 28.25 28.29 29.28 29.26 30.92 29.82 28.09 29.38 29.74 29.50 30.79 29.28 28.64 29.61 30.32 30.54 30.64 31.02 32.36 29.45 27.02 26.74 26.37 26.13 29.90 32.50 32.52 34.58 34.54 33.78 32.68 32.52 32.34 33.27 32.97 33.06
29.44 25.63 20.87 20.67 18.72 22.91 22.14 20.57 25.74 24.98 22.30 19.45 22.35 23.92 24.08 24.19 27.13 26.47 29.51 29.65 30.38 22.95 24.68 25.95 23.44 24.75 25.59 25.72 25.44 22.82 28.82 27.06 27.64 31.24 32.85 31.71 26.62 23.25 22.80 26.43 27.98 30.92 32.73 32.90 32.90 33.03 32.97 33.11 33.21 32.94 32.82 32.44 32.74 33.04
22.70 19.98 20.68 23.43 26.03 28.63 28.38 22.34 20.89 23.23 23.20 16.52 17.13 26.00 22.57 18.54 19.86 25.25 26.12 27.55 23.14 26.60 29.61 28.61 29.31 32.57 29.31 27.59 24.87 28.58 26.63 27.18 26.23 27.54 28.20 26.72 25.80 26.37 28.54 30.32 33.15 32.87 32.91 32.90 32.82 32.73 32.67 32.34 32.52 32.56 32.33 32.50 32.06 31.36
18.05 16.59 18.61 24.10 27.23 25.80 26.49 21.37 18.08 21.48 16.32 17.53 16.69 16.54 17.78 21.70 21.34 26.08 24.64 29.38 33.99 34.46 33.38 32.45 30.04 21.49 23.67 24.69 26.31 28.25 30.17 29.88 32.71 31.14 25.13 26.78 31.06 31.71 29.72 28.52 31.30 32.25 32.11 32.32 32.30 31.83 31.85 31.65 31.57 31.75 31.66 31.77 32.03 32.23
MSLP
1017.60 1018.50 1019.17 1019.61 1019.93 1020.30 1020.34 1020.38 1020.13 1019.87 1019.60 1019.10 1018.47 1018.00 1017.54 1017.45 1017.42 1017.71 1021.08 1020.82 1021.45 1025.82 1027.97 1027.65 1027.68 1028.01 1028.27 1028.68 1029.65 1029.97 1030.17 1030.18 1030.70 1031.71 1032.50 1032.77 1032.19 1031.66 1031.23 1030.65 1030.25 1030.16 1029.74 1029.22 1028.51 1027.69 1027.21 1026.65 1025.60 1025.68 1026.29 1025.63 1025.14 1024.45
1017.79 1018.72 1019.34 1019.76 1020.10 1020.53 1020.53 1020.51 1020.49 1020.18 1019.94 1019.76 1019.02 1018.59 1018.30 1018.11 1018.28 1018.34 1021.59 1021.55 1021.69 1024.46 1028.40 1028.36 1028.36 1028.33 1028.17 1028.48 1029.32 1030.36 1031.25 1031.68 1032.15 1032.91 1033.37 1033.36 1033.16 1032.68 1032.38 1031.66 1030.81 1030.74 1030.22 1029.91 1029.37 1028.12 1027.33 1026.99 1026.57 1026.14 1026.08 1025.92 1025.22 1024.69
1018.06 1018.87 1019.51 1020.05 1020.40 1020.79 1020.64 1020.84 1020.70 1020.73 1020.35 1020.47 1019.80 1019.44 1018.99 1019.09 1019.33 1019.39 1022.18 1023.24 1023.06 1026.43 1028.77 1028.91 1029.13 1028.90 1028.32 1028.54 1028.71 1030.03 1031.25 1031.39 1031.95 1032.31 1033.16 1033.76 1033.91 1033.45 1033.15 1032.30 1031.66 1030.75 1030.15 1029.83 1029.25 1027.98 1027.47 1026.44 1026.10 1026.27 1026.18 1025.80 1025.19 1024.64
1018.32 1019.09 1019.78 1020.35 1020.87 1021.00 1020.95 1021.02 1021.08 1021.18 1021.05 1021.09 1020.74 1020.44 1020.31 1020.58 1021.07 1021.15 1023.13 1024.22 1024.39 1026.42 1029.45 1030.61 1029.53 1029.35 1029.24 1029.03 1029.25 1029.72 1030.66 1031.32 1032.04 1032.69 1033.54 1034.06 1033.93 1033.47 1033.16 1032.55 1032.04 1031.39 1030.78 1030.16 1029.19 1028.21 1026.77 1025.84 1026.06 1026.30 1025.69 1025.41 1024.86 1024.24
1018.65 1019.41 1019.93 1020.83 1021.15 1021.19 1021.31 1021.34 1021.51 1021.65 1021.69 1021.70 1021.60 1021.58 1021.64 1021.90 1022.31 1022.34 1023.51 1024.93 1024.99 1025.56 1029.57 1030.83 1030.44 1030.13 1029.91 1030.05 1030.46 1030.69 1031.19 1032.07 1032.97 1033.54 1034.04 1034.40 1033.99 1033.41 1032.85 1032.48 1031.81 1031.21 1030.87 1030.29 1029.35 1028.78 1028.78 1027.11 1026.24 1025.94 1025.70 1024.91 1024.44 1024.15
1019.00 1019.73 1020.43 1021.01 1021.33 1021.61 1021.72 1021.79 1021.92 1022.14 1022.26 1022.31 1022.23 1022.33 1022.43 1022.45 1022.56 1023.00 1024.68 1025.18 1025.45 1025.80 1028.08 1030.95 1031.30 1030.70 1030.66 1030.88 1031.30 1031.72 1032.10 1032.82 1033.48 1034.14 1034.57 1034.18 1033.59 1033.35 1033.02 1032.44 1031.55 1031.14 1030.70 1030.20 1029.15 1028.59 1028.19 1027.15 1026.31 1025.87 1025.46 1024.47 1023.76 1023.54
1019.39 1020.13 1020.80 1021.20 1021.68 1021.96 1022.24 1022.30 1022.45 1022.61 1022.84 1023.04 1022.97 1023.11 1023.20 1023.09 1023.36 1025.00 1026.73 1026.91 1026.20 1026.35 1028.10 1031.04 1031.64 1031.19 1030.97 1031.48 1032.07 1032.54 1032.89 1033.54 1033.95 1034.62 1034.66 1034.34 1033.51 1033.12 1032.95 1032.34 1031.35 1030.75 1029.93 1029.11 1028.53 1028.12 1027.15 1026.39 1025.97 1025.15 1024.61 1023.52 1022.88 1022.17
1019.66 1020.46 1021.06 1021.60 1022.10 1022.45 1022.68 1022.88 1022.99 1023.15 1023.45 1023.66 1023.82 1024.01 1024.14 1024.43 1025.21 1026.21 1026.86 1026.38 1026.30 1027.01 1028.12 1030.86 1032.19 1031.78 1031.35 1032.12 1032.92 1033.14 1033.69 1034.06 1034.54 1034.92 1034.67 1034.28 1033.53 1033.00 1032.64 1031.96 1031.24 1030.35 1029.33 1028.28 1027.76 1027.39 1026.95 1026.30 1025.59 1024.67 1023.77 1022.83 1021.98 1021.61
1019.97 1020.77 1021.48 1022.08 1022.54 1022.90 1023.11 1023.37 1023.55 1023.75 1023.87 1024.14 1024.30 1024.50 1024.93 1025.88 1027.15 1027.57 1027.01 1026.65 1026.67 1027.58 1029.45 1030.86 1032.07 1032.24 1031.83 1032.67 1033.15 1033.68 1034.00 1034.73 1034.95 1035.07 1034.69 1034.22 1033.99 1033.47 1032.85 1031.72 1031.11 1030.28 1029.41 1028.24 1026.86 1026.13 1026.00 1025.87 1025.21 1024.38 1023.40 1022.55 1022.05 1022.18
1020.28 1021.15 1021.95 1022.49 1022.98 1023.38 1023.63 1023.81 1023.99 1024.09 1024.14 1024.35 1024.63 1025.69 1027.64 1028.21 1027.89 1027.53 1027.37 1027.66 1028.39 1029.16 1029.83 1031.40 1032.05 1032.24 1032.34 1032.88 1033.73 1034.17 1034.41 1034.98 1035.22 1035.21 1034.70 1034.62 1034.22 1033.15 1032.44 1031.96 1031.33 1030.20 1029.14 1027.78 1026.61 1026.16 1025.74 1025.37 1024.85 1024.13 1023.38 1022.71 1022.29 1022.25
1020.62 1021.59 1022.34 1022.92 1023.42 1023.90 1024.11 1024.21 1024.37 1024.44 1024.36 1024.97 1026.51 1028.01 1028.48 1028.22 1028.29 1029.28 1030.15 1030.46 1030.99 1031.10 1031.13 1031.67 1031.80 1032.16 1032.38 1032.89 1033.71 1034.15 1034.57 1034.92 1035.18 1035.33 1035.11 1035.21 1034.45 1033.18 1032.28 1031.74 1030.99 1030.02 1029.09 1028.09 1027.47 1026.82 1026.07 1025.37 1024.84 1024.18 1023.44 1022.96 1022.51 1022.52
1021.06 1021.96 1022.72 1023.32 1023.91 1024.32 1024.54 1024.67 1024.79 1024.95 1025.40 1025.70 1026.59 1028.02 1028.58 1029.32 1030.08 1030.80 1032.05 1031.76 1031.46 1031.49 1031.52 1031.56 1031.80 1031.96 1032.54 1032.60 1033.44 1034.05 1034.44 1034.68 1035.04 1035.08 1035.30 1035.38 1034.18 1032.96 1032.45 1031.79 1031.13 1030.13 1029.46 1028.56 1027.85 1027.05 1026.23 1025.56 1024.94 1024.40 1024.00 1023.45 1023.15 1023.19
1021.50 1022.36 1023.11 1023.75 1024.28 1024.69 1024.93 1025.18 1025.35 1025.49 1025.57 1026.16 1027.20 1028.85 1029.62 1030.94 1031.31 1031.53 1032.05 1031.88 1031.63 1031.14 1031.13 1031.37 1031.92 1032.09 1032.62 1032.89 1033.82 1033.96 1034.27 1034.56 1034.62 1035.35 1035.98 1035.40 1033.97 1033.00 1032.56 1031.95 1031.38 1030.53 1029.63 1028.82 1028.13 1027.34 1026.65 1026.00 1025.37 1025.12 1024.80 1024.41 1024.10 1024.16
1021.94 1022.74 1023.48 1024.08 1024.51 1025.13 1025.51 1025.93 1025.97 1025.76 1026.09 1027.39 1028.61 1030.09 1030.49 1031.14 1030.77 1030.53 1030.44 1030.31 1030.44 1030.48 1030.83 1031.31 1031.99 1032.18 1032.83 1033.27 1033.81 1033.99 1034.08 1034.12 1034.75 1035.44 1035.54 1034.69 1033.58 1032.85 1032.39 1032.17 1031.68 1031.37 1030.37 1029.72 1029.02 1028.29 1027.60 1026.93 1026.39 1025.94 1025.65 1025.39 1025.20 1025.37
1022.47 1023.34 1024.04 1024.70 1025.36 1025.74 1026.07 1026.13 1026.01 1026.34 1027.18 1028.27 1028.96 1030.02 1030.26 1030.09 1030.06 1029.97 1029.69 1029.77 1030.12 1030.21 1030.66 1031.55 1032.05 1032.25 1032.89 1033.43 1033.74 1033.88 1034.01 1034.14 1034.41 1034.72 1034.68 1033.79 1033.12 1032.73 1032.16 1031.88 1031.76 1031.60 1031.14 1030.43 1029.87 1029.07 1028.45 1027.82 1027.26 1026.84 1026.54 1026.23 1026.07 1026.20
1023.19 1024.20 1024.80 1025.32 1025.69 1026.05 1026.41 1026.58 1027.11 1027.48 1028.26 1028.85 1029.41 1030.04 1029.95 1029.86 1030.15 1030.01 1029.81 1030.09 1030.10 1030.38 1030.80 1031.42 1032.30 1032.68 1033.05 1033.13 1033.50 1033.65 1033.82 1033.94 1034.08 1033.79 1033.45 1033.15 1032.95 1032.65 1032.26 1031.76 1031.50 1031.46 1031.33 1030.94 1030.61 1030.04 1029.09 1028.53 1028.06 1027.57 1027.15 1027.02 1026.93 1026.93
1023.53 1024.01 1024.93 1025.62 1026.16 1026.65 1026.85 1027.40 1028.27 1029.19 1029.60 1029.72 1029.96 1029.63 1029.69 1029.84 1030.08 1030.08 1029.94 1030.10 1030.00 1030.62 1031.68 1032.04 1032.54 1032.74 1032.83 1033.09 1033.39 1033.41 1033.54 1033.62 1033.57 1033.48 1033.28 1033.12 1032.90 1032.71 1032.44 1032.02 1031.65 1031.43 1031.26 1031.11 1030.59 1030.23 1030.01 1029.02 1028.53 1027.94 1027.74 1027.79 1027.71 1027.70
1023.27 1024.29 1025.26 1025.99 1026.45 1027.10 1028.11 1028.61 1029.49 1030.05 1030.45 1030.30 1030.06 1030.00 1029.83 1029.74 1030.02 1030.03 1030.11 1030.09 1030.22 1031.20 1031.52 1031.95 1032.20 1032.60 1032.97 1033.15 1033.48 1033.38 1033.36 1033.31 1033.30 1033.28 1033.17 1032.96 1032.87 1032.66 1032.40 1032.17 1031.86 1031.53 1031.26 1030.99 1030.53 1030.35 1030.25 1030.16 1029.38 1028.94 1028.59 1028.36 1028.17 1028.14
1023.45 1024.70 1025.65 1026.27 1026.67 1027.76 1029.28 1030.14 1030.13 1030.56 1030.76 1030.50 1030.27 1030.14 1029.96 1029.91 1029.92 1029.92 1030.11 1030.23 1030.32 1030.63 1031.41 1032.07 1032.54 1032.89 1032.93 1033.01 1033.08 1033.15 1033.34 1033.18 1033.35 1033.26 1033.09 1032.92 1032.76 1032.67 1032.48 1032.17 1031.84 1031.56 1031.25 1030.90 1030.56 1030.39 1030.25 1030.16 1030.18 1029.56 1029.10 1028.73 1028.84 1028.75
1024.12 1025.19 1026.12 1026.60 1026.87 1028.61 1030.04 1030.68 1030.45 1030.46 1030.70 1030.61 1030.40 1030.43 1030.38 1030.44 1030.37 1030.48 1030.63 1030.75 1030.99 1031.39 1031.98 1032.37 1032.52 1032.27 1032.20 1032.17 1032.35 1032.59 1032.70 1032.83 1033.14 1033.36 1033.18 1032.78 1032.51 1032.43 1032.34 1032.23 1032.00 1031.57 1031.27 1030.95 1030.65 1030.33 1030.21 1030.00 1029.61 1029.54 1029.40 1029.15 1029.07 1029.16
1025.12 1026.20 1026.69 1026.95 1028.24 1029.02 1030.05 1030.69 1030.74 1030.69 1030.63 1030.64 1030.57 1030.40 1030.73 1030.66 1030.93 1031.13 1031.36 1031.28 1031.73 1031.98 1032.11 1031.88 1031.76 1031.32 1031.20 1031.37 1031.48 1031.70 1032.00 1032.38 1032.67 1032.85 1032.88 1032.85 1032.37 1032.31 1032.12 1031.80 1031.67 1031.38 1031.31 1031.12 1030.90 1030.52 1030.22 1029.94 1029.68 1029.52 1029.35 1029.41 1029.32 1029.25
1025.49 1026.76 1028.25 1028.51 1029.20 1029.75 1030.07 1030.31 1030.41 1030.53 1030.83 1030.95 1030.86 1030.78 1031.16 1031.41 1031.37 1031.32 1031.34 1031.60 1031.72 1031.25 1031.16 1031.00 1030.79 1030.76 1031.04 1031.11 1031.04 1031.05 1030.98 1031.17 1031.49 1031.89 1032.08 1032.22 1032.17 1032.03 1031.94 1031.68 1031.74 1031.60 1031.36 1031.06 1030.78 1030.63 1030.16 1029.81 1029.58 1029.53 1029.44 1029.36 1029.36 1029.48
1026.04 1027.21 1028.64 1029.31 1029.91 1030.28 1030.82 1030.49 1030.67 1030.92 1031.08 1031.38 1031.37 1031.59 1031.71 1031.64 1031.50 1031.40 1031.75 1031.64 1031.04 1030.22 1029.87 1029.81 1029.75 1029.84 1030.17 1030.10 1030.28 1030.40 1030.43 1030.59 1031.03 1031.20 1031.32 1031.52 1031.47 1031.47 1031.49 1031.24 1031.32 1031.46 1031.22 1030.56 1030.26 1030.27 1030.10 1029.67 1029.59 1029.67 1029.58 1029.69 1030.05 1029.95
1026.27 1027.72 1028.78 1029.29 1029.85 1030.58 1030.64 1030.82 1030.87 1031.08 1031.35 1031.67 1031.84 1031.98 1031.96 1031.87 1031.76 1032.03 1031.92 1031.27 1030.20 1029.70 1029.48 1029.32 1029.43 1029.69 1029.96 1030.02 1030.11 1029.99 1029.99 1030.04 1030.34 1030.52 1030.63 1031.02 1031.18 1031.00 1030.81 1030.67 1030.58 1030.53 1030.52 1030.24 1030.09 1029.99 1029.87 1029.67 1029.50 1029.50 1029.65 1029.69 1029.73 1029.92
1026.64 1028.34 1028.62 1029.20 1029.68 1029.91 1030.44 1031.16 1031.38 1031.61 1031.76 1031.83 1031.91 1032.07 1031.89 1031.93 1032.33 1032.49 1031.81 1030.52 1029.75 1029.15 1028.72 1028.94 1029.24 1029.24 1029.43 1029.52 1029.51 1029.59 1029.44 1029.74 1030.06 1030.24 1030.07 1030.27 1030.49 1030.60 1030.55 1030.29 1030.30 1030.21 1029.97 1030.03 1029.95 1029.90 1029.77 1029.67 1029.60 1029.48 1029.36 1029.45 1029.54 1029.44
1026.01 1027.03 1027.53 1027.76 1028.83 1029.27 1029.92 1030.94 1031.40 1031.49 1031.71 1031.91 1031.48 1031.41 1031.54 1032.11 1032.50 1031.85 1030.58 1029.33 1028.72 1028.40 1028.27 1028.40 1028.58 1028.88 1028.90 1028.90 1029.16 1029.24 1029.02 1028.88 1029.27 1029.77 1029.68 1029.77 1029.90 1030.18 1030.23 1030.31 1030.39 1029.91 1029.52 1029.50 1029.87 1029.73 1029.61 1029.49 1029.38 1029.20 1029.10 1028.90 1028.89 1028.86
1025.00 1025.72 1026.22 1026.56 1027.19 1027.75 1029.09 1029.79 1030.24 1030.44 1031.38 1031.35 1031.17 1031.38 1031.62 1031.98 1031.34 1029.73 1028.58 1027.88 1027.60 1026.95 1026.76 1026.94 1027.47 1027.83 1027.87 1028.10 1028.13 1028.29 1028.19 1028.24 1028.50 1028.70 1028.59 1028.79 1028.92 1029.01 1029.43 1029.80 1029.44 1028.95 1028.81 1029.06 1029.21 1029.28 1029.25 1029.01 1028.99 1028.85 1028.69 1028.54 1028.49 1028.45
1023.44 1024.22 1025.29 1026.36 1026.79 1027.36 1028.40 1029.06 1029.52 1029.95 1029.82 1029.66 1029.88 1030.39 1030.39 1029.77 1029.20 1027.88 1027.40 1026.50 1026.27 1026.66 1026.67 1026.68 1026.68 1026.92 1027.16 1027.31 1027.43 1027.64 1027.91 1028.15 1028.52 1028.60 1028.62 1028.56 1028.42 1028.50 1028.61 1028.61 1028.33 1028.33 1028.32 1028.48 1028.84 1028.69 1028.62 1028.47 1028.42 1028.29 1028.23 1028.08 1027.84 1027.79
1023.25 1023.74 1024.56 1026.20 1027.07 1027.47 1027.47 1027.47 1027.53 1027.57 1027.52 1028.15 1028.04 1028.29 1028.19 1027.68 1026.82 1026.41 1026.39 1025.98 1026.08 1026.66 1027.02 1027.17 1026.96 1027.01 1027.19 1027.26 1027.31 1027.49 1027.90 1028.39 1028.80 1028.91 1028.65 1028.63 1028.44 1028.32 1027.94 1027.92 1027.96 1027.99 1028.14 1028.38 1028.15 1028.13 1028.06 1027.96 1027.90 1027.78 1027.58 1027.44 1027.16 1027.13
1022.96 1022.94 1024.38 1025.67 1026.22 1026.68 1026.07 1025.74 1026.28 1026.23 1026.54 1026.48 1026.34 1026.83 1026.92 1026.47 1025.81 1025.16 1025.76 1026.21 1026.49 1026.55 1026.18 1026.24 1026.39 1026.86 1027.35 1027.64 1027.74 1027.71 1027.49 1027.61 1027.88 1028.30 1028.16 1028.02 1027.73 1027.45 1027.48 1027.67 1027.79 1027.91 1028.17 1028.16 1027.80 1027.42 1027.19 1027.27 1027.41 1027.44 1027.19 1026.82 1026.65 1026.62
1022.28 1023.13 1024.24 1025.13 1025.65 1025.54 1025.35 1025.61 1025.70 1026.14 1026.73 1026.67 1026.45 1026.77 1026.77 1026.64 1025.74 1025.19 1025.05 1025.28 1025.55 1025.57 1025.94 1026.23 1026.50 1026.62 1026.98 1027.34 1027.73 1027.55 1027.60 1026.93 1026.73 1026.79 1026.80 1026.86 1027.09 1027.32 1027.40 1027.44 1027.35 1027.30 1027.33 1027.28 1027.14 1026.96 1026.74 1026.63 1026.60 1026.56 1026.46 1026.26 1026.06 1026.02
1022.54 1023.14 1023.96 1025.16 1025.61 1025.58 1025.76 1026.24 1026.43 1027.11 1027.48 1027.47 1027.53 1027.37 1027.33 1027.24 1026.54 1025.35 1024.28 1024.68 1025.28 1025.57 1024.97 1025.25 1025.80 1025.53 1025.51 1025.81 1026.11 1026.26 1026.17 1026.12 1026.14 1026.22 1026.26 1026.42 1026.49 1026.58 1026.43 1026.58 1026.48 1026.38 1026.54 1026.59 1026.50 1026.37 1026.26 1026.11 1025.93 1025.75 1025.58 1025.38 1025.23 1025.14
1023.07 1023.33 1023.76 1024.70 1025.46 1025.69 1026.01 1026.39 1027.02 1027.82 1027.76 1027.79 1027.77 1027.75 1027.46 1026.96 1026.53 1024.70 1023.41 1023.32 1023.34 1023.36 1023.53 1023.66 1023.92 1024.38 1024.80 1025.12 1025.45 1025.68 1025.78 1025.89 1025.87 1026.10 1026.41 1026.38 1026.13 1026.21 1026.15 1026.09 1026.25 1026.27 1026.25 1026.13 1025.97 1025.75 1025.49 1025.38 1025.17 1024.95 1024.77 1024.55 1024.30 1024.15
Wind_Speed
23 21 18 16 14 11 10 9 10 12 12 14 14 14 15 15 12 7 1 4 7 6 5 7 5 4 2 4 4 4 5 6 5 6 3 2 2 2 3 4 2 2 4 3 3 3 3 11 10 6 6 13 12 14
23 21 19 17 14 12 11 11 11 12 14 15 15 16 18 15 14 9 7 4 5 9 6 1 5 3 4 5 6 5 5 2 3 4 1 1 1 3 2 2 5 2 2 2 2 4 2 2 9 8 6 9 10 14
23 21 19 17 15 13 13 12 12 13 15 16 18 19 20 22 21 14 7 2 7 10 7 6 5 7 6 5 2 6 2 2 2 3 4 2 5 2 2 2 3 4 5 2 6 2 6 15 4 4 5 9 14 12
24 22 20 17 14 13 14 13 13 13 14 15 19 21 23 24 22 13 6 3 5 6 7 4 3 5 4 8 9 6 6 5 5 3 3 3 2 1 1 3 1 2 6 6 6 5 17 4 3 10 15 16 13 12
23 22 20 17 14 13 14 14 14 14 13 12 13 14 17 19 18 13 6 4 4 7 7 3 2 5 5 7 10 9 7 5 3 4 4 2 2 2 1 1 2 3 3 3 4 12 9 18 17 19 19 19 14 11
23 22 20 18 15 13 13 14 14 15 15 15 15 14 11 10 5 5 7 5 8 4 7 5 3 1 5 7 8 7 4 4 3 3 1 2 3 2 1 2 3 6 9 10 7 12 15 20 20 20 15 14 18 13
23 22 20 18 15 14 13 13 14 16 17 17 19 21 20 18 9 7 5 4 7 2 6 4 2 4 2 3 3 4 4 3 3 2 3 1 3 2 1 2 6 13 14 15 14 11 10 6 7 18 16 19 17 15
23 22 20 18 15 14 14 13 13 13 14 13 13 13 14 16 10 6 4 6 2 6 5 5 1 3 1 2 3 2 3 3 5 1 2 2 3 1 2 5 14 16 18 12 7 9 12 15 16 17 15 14 9 4
24 22 20 17 15 14 13 12 12 11 10 9 8 7 6 8 5 3 11 5 3 5 5 4 5 3 2 1 2 3 2 4 2 2 2 3 4 4 8 14 13 18 12 13 16 10 9 9 13 15 13 9 4 2
24 22 20 17 15 13 12 11 10 9 8 6 6 6 5 3 6 7 8 6 7 5 5 4 1 3 3 1 2 2 2 1 3 2 2 3 2 5 6 7 11 15 16 14 10 12 7 6 6 9 9 7 3 5
25 23 20 17 15 12 11 10 8 5 6 4 4 3 3 5 4 5 4 5 3 5 3 1 2 4 3 4 2 1 2 1 3 4 3 3 4 4 6 7 10 13 17 15 12 8 7 5 6 7 9 8 4 5
25 23 21 18 15 12 10 9 5 4 2 4 6 5 3 5 5 8 1 2 3 4 1 5 3 4 1 3 4 2 2 2 1 1 4 4 5 5 6 7 9 13 19 18 15 14 13 10 8 7 6 7 6 4
24 22 20 18 15 12 11 9 11 8 4 4 6 5 4 4 8 5 4 1 2 3 3 3 2 3 2 4 3 2 3 2 2 4 0 5 5 7 6 6 7 11 18 20 20 18 16 12 10 9 8 7 7 7
22 20 19 16 13 11 10 7 7 4 5 5 4 4 3 3 2 3 4 4 3 4 5 4 3 3 2 4 2 3 1 2 3 3 3 4 5 7 5 5 5 8 13 19 19 18 16 13 10 11 9 7 6 7
23 19 17 13 12 12 9 7 8 4 4 4 3 3 2 1 1 1 2 5 2 4 5 4 4 3 2 4 1 2 2 1 2 5 4 4 4 6 6 4 5 6 6 11 18 17 16 14 9 10 10 8 7 6
25 18 5 15 15 12 8 7 5 3 4 3 3 3 1 4 3 3 3 4 0 3 3 4 3 3 1 4 3 3 4 3 4 3 3 2 1 5 5 5 3 2 4 5 10 14 16 14 11 6 8 10 8 7
18 4 19 18 16 13 9 5 4 6 3 2 1 2 2 4 4 2 2 2 1 4 3 3 3 3 3 3 2 3 3 2 2 1 2 0 2 2 5 6 7 5 3 5 4 5 11 15 12 8 9 7 7 7
4 17 23 20 8 5 3 4 4 4 4 1 3 1 1 2 4 2 2 1 4 3 3 2 4 2 3 4 2 3 2 1 1 3 2 3 2 3 3 4 4 5 5 4 5 3 5 10 14 9 7 6 5 6
18 18 23 13 7 6 4 4 3 3 1 0 1 1 2 2 2 3 3 2 3 3 5 2 3 2 3 2 3 3 2 2 2 1 1 3 3 4 5 5 6 6 6 6 5 4 2 3 1 8 6 4 4 4
29 25 18 8 7 4 4 2 1 2 3 3 1 2 3 3 1 3 3 3 3 3 2 2 4 4 5 4 4 4 4 4 3 2 4 4 2 3 4 3 4 5 4 5 5 4 3 3 4 3 3 4 3 4
23 11 10 6 4 4 4 3 2 2 2 2 2 2 2 2 3 2 2 1 3 3 3 4 4 4 5 3 4 4 4 5 6 6 5 4 4 3 3 4 3 2 1 3 4 5 4 3 4 3 2 2 3 2
9 14 4 5 4 3 3 1 2 2 3 1 2 3 3 2 1 2 2 2 3 5 5 4 4 4 4 5 6 6 6 5 6 4 4 2 2 2 3 3 2 3 4 4 4 4 5 4 4 4 4 3 1 3
15 5 4 2 4 4 2 2 2 1 5 2 3 3 1 2 2 2 1 3 4 4 5 5 4 6 6 5 3 4 5 5 3 4 4 4 4 4 4 5 3 4 5 6 3 4 4 5 4 3 1 2 1 2
7 4 4 4 4 4 2 0 1 3 3 3 3 3 2 3 1 2 3 4 4 3 3 5 3 2 1 1 3 4 5 4 3 3 3 2 3 5 3 4 4 4 4 5 4 4 4 5 4 3 1 2 2 2
8 5 7 4 2 5 4 2 0 3 3 3 4 1 2 2 2 2 4 4 3 4 4 3 4 4 5 3 2 4 4 5 4 5 4 4 2 1 2 2 3 4 2 2 4 3 5 4 3 3 4 3 5 6
6 5 8 8 5 6 7 6 6 6 4 2 4 3 3 3 3 6 5 4 5 5 5 6 5 3 4 5 4 3 4 4 5 4 3 5 5 4 2 1 3 5 4 3 3 4 6 4 4 6 6 7 6 6
7 6 5 2 5 6 4 3 2 5 4 5 5 3 5 4 8 6 3 4 4 5 5 5 6 6 5 4 4 4 4 5 7 5 4 5 5 5 5 5 6 6 4 4 4 5 6 6 5 5 5 4 5 5
5 7 10 8 4 2 6 4 5 7 6 5 6 6 11 12 8 5 7 4 4 3 2 3 4 4 4 5 4 2 2 3 1 1 2 3 4 4 5 5 5 7 5 4 4 4 5 6 8 8 7 7 8 4
3 5 8 4 4 3 6 7 8 4 5 7 7 5 6 5 4 3 4 3 4 4 3 3 4 2 2 1 2 3 4 4 5 5 9 6 4 5 5 5 5 4 2 3 6 6 6 5 5 6 7 6 5 4
5 5 6 5 7 7 6 6 5 3 2 4 4 2 2 3 4 2 3 3 3 5 6 5 3 4 4 4 4 4 4 5 5 6 8 8 8 4 3 3 3 2 2 3 5 7 9 5 3 3 5 5 4 4
8 4 5 4 5 4 4 2 2 3 2 1 1 4 5 3 4 3 4 5 4 2 4 3 3 4 5 5 5 3 5 4 7 10 9 4 1 3 4 4 4 4 4 4 5 5 5 5 5 7 10 11 10 9
3 5 6 5 3 2 2 2 2 3 1 2 1 1 3 4 2 4 4 6 3 5 8 6 6 10 7 4 3 4 6 3 3 4 6 3 3 4 3 3 4 3 4 5 5 6 7 8 7 8 10 14 12 9
4 3 3 5 4 4 3 4 3 2 3 1 3 5 5 6 7 6 3 5 9 11 9 9 7 4 5 6 5 3 5 3 5 6 4 4 3 5 4 1 4 6 6 6 7 8 10 11 11 12 13 12 12 12
Wind_Direction
148 147 143 137 129 119 98 78 55 39 31 36 36 42 46 48 52 81 114 354 112 94 32 30 40 68 61 61 107 272 43 358 29 58 76 296 54 329 13 342 32 34 329 346 323 348 45 17 343 40 304 301 312 323
147 145 140 135 128 119 101 82 61 45 43 39 43 54 57 54 46 62 63 347 66 80 150 90 78 35 78 178 132 27 138 152 161 90 31 133 9 12 49 338 345 358 166 272 246 248 266 298 270 281 296 307 315 323
145 142 138 134 129 121 102 84 65 54 48 46 53 61 64 65 58 90 106 359 68 92 61 42 13 347 22 29 139 112 338 162 75 159 152 131 71 116 31 317 323 309 8 297 336 69 306 301 312 74 321 318 316 311
144 142 138 134 131 120 103 86 71 61 51 47 63 67 74 74 71 71 75 333 76 104 94 328 326 28 1 39 47 67 122 58 90 69 82 80 79 91 252 275 227 249 317 321 274 319 329 126 11 335 323 318 314 314
144 142 137 137 130 117 104 91 80 67 56 52 57 65 77 82 83 84 88 47 45 115 132 157 337 7 34 53 53 45 57 67 49 46 47 41 289 13 301 323 295 359 345 325 283 318 278 282 302 312 312 309 309 316
144 141 139 136 129 119 105 94 85 77 74 74 70 66 60 60 74 56 48 8 19 42 100 86 269 67 55 70 66 48 48 65 76 94 69 307 261 87 13 298 281 309 303 294 291 299 286 281 287 293 287 294 298 293
143 141 140 135 131 122 110 99 89 82 77 72 75 75 72 71 65 70 142 243 328 41 86 86 52 323 119 77 30 39 36 59 83 81 46 352 306 59 351 272 298 313 313 304 293 291 282 260 292 305 301 291 289 272
143 141 138 137 134 126 115 104 93 84 79 72 71 75 77 85 91 34 339 340 5 87 75 98 52 36 80 31 37 2 49 33 19 61 0 22 315 42 292 292 322 325 321 305 293 277 269 283 292 294 297 300 314 108
142 140 139 139 135 128 119 110 100 94 82 75 86 85 53 39 45 282 319 359 28 103 105 85 129 181 23 54 73 30 66 53 299 55 355 59 331 26 307 313 334 323 322 298 300 280 274 272 283 288 300 323 64 104
140 138 138 138 133 128 121 112 105 93 72 77 52 45 31 324 293 345 5 25 17 347 36 85 125 104 96 36 25 65 20 84 52 288 342 58 269 248 306 329 330 330 336 343 357 354 333 300 305 317 319 324 270 159
138 136 136 137 132 130 122 112 100 62 45 47 56 78 232 326 48 33 42 66 324 35 27 124 124 121 341 102 133 132 158 312 59 282 92 349 324 278 334 337 331 337 353 1 2 344 327 293 303 319 340 346 37 149
139 138 138 138 136 133 123 103 44 48 58 127 120 101 56 36 39 76 0 326 50 161 191 121 183 140 72 95 89 339 105 38 197 211 69 2 266 291 327 334 337 351 359 1 2 359 353 351 352 352 341 360 24 68
139 141 142 141 141 138 122 97 42 102 108 49 52 58 53 318 49 109 152 352 103 172 162 120 80 119 58 56 64 81 75 211 100 45 25 234 283 303 333 332 339 354 2 5 2 2 3 357 11 15 6 10 29 52
139 142 142 142 138 122 113 93 38 59 67 70 82 48 97 317 210 181 161 151 203 120 117 107 82 106 117 67 141 94 220 102 61 57 250 260 273 301 323 332 346 339 24 0 1 357 359 1 3 13 15 12 32 34
147 140 138 140 121 116 108 61 47 42 74 80 80 121 186 186 72 214 157 94 48 123 103 82 52 87 46 95 35 92 51 105 171 202 226 243 282 313 326 350 352 343 347 36 356 355 354 357 1 17 10 13 31 40
143 130 124 131 123 116 97 53 34 42 44 59 71 74 31 78 6 38 77 88 109 99 79 56 91 71 100 127 140 183 143 186 216 210 230 258 356 354 341 355 348 300 331 18 29 354 347 353 346 353 17 20 21 27
148 103 132 127 110 83 57 73 49 44 85 64 59 30 105 89 122 128 112 128 123 76 103 99 93 171 111 92 130 172 169 204 206 318 322 319 132 13 338 3 17 28 358 330 334 30 2 341 352 6 24 7 18 17
92 133 132 131 114 74 41 39 76 72 64 0 94 319 55 109 119 82 99 77 82 106 107 158 130 104 145 151 203 228 151 163 135 125 89 48 32 359 4 2 344 359 357 338 326 343 31 17 345 345 348 358 22 18
136 135 140 124 107 90 76 14 56 100 105 247 296 18 79 93 60 94 94 61 94 109 103 59 104 163 208 195 169 197 202 174 164 208 242 290 309 321 319 319 316 334 331 322 328 323 308 151 283 308 313 356 3 1
136 135 113 97 69 77 73 41 27 104 143 200 101 73 94 102 75 61 64 50 70 69 59 133 202 205 183 202 183 174 185 177 123 1 309 299 284 308 311 297 291 301 310 317 320 312 345 277 278 292 302 339 6 354
121 130 64 62 53 68 111 142 120 195 138 119 159 90 92 60 63 82 107 91 73 167 229 216 214 225 201 197 184 172 190 168 189 182 215 252 257 214 275 290 273 299 291 305 308 305 315 304 292 295 329 324 325 359
105 90 75 20 70 38 77 181 151 168 88 183 86 85 94 88 78 256 144 82 215 220 195 189 216 201 216 226 228 208 227 204 208 200 203 200 243 257 271 260 307 289 296 276 267 276 289 293 305 316 299 274 223 330
96 64 66 81 91 62 260 53 95 353 112 181 28 78 50 122 209 53 297 226 249 233 213 214 219 198 207 231 202 245 226 205 225 225 224 227 238 249 258 274 218 236 275 283 242 259 271 277 288 297 232 199 296 307
105 80 124 132 107 133 93 89 1 102 81 98 105 99 170 191 99 94 242 243 244 245 209 222 180 184 105 175 208 227 237 194 224 267 235 211 266 277 232 258 281 253 230 270 284 279 282 279 295 301 228 226 201 243
106 190 134 143 196 134 126 114 235 55 118 159 115 151 194 116 119 227 240 256 239 238 238 184 205 201 197 212 237 248 242 176 194 217 265 192 197 285 292 266 283 272 273 333 310 304 297 301 293 282 282 235 244 256
144 164 166 157 146 143 162 146 181 172 134 134 187 147 102 114 149 238 230 221 222 217 197 193 195 199 230 198 202 215 240 191 151 163 237 191 195 194 217 260 294 294 235 224 209 278 292 286 284 293 287 277 259 255
147 166 173 188 146 127 106 104 122 113 139 174 175 140 114 157 226 243 261 223 211 216 193 178 173 185 201 206 216 217 211 168 177 194 202 192 200 192 177 202 243 241 222 238 240 228 260 277 276 274 272 274 241 235
167 155 154 165 119 134 132 125 136 174 191 200 130 164 177 195 219 219 207 243 207 142 192 198 198 190 195 215 225 223 206 191 230 12 340 296 238 233 232 240 249 261 259 245 218 247 251 255 269 269 271 267 279 241
137 151 115 114 117 165 188 167 187 203 175 166 158 169 215 223 217 191 243 202 145 145 172 220 259 204 259 287 258 215 181 161 174 228 249 250 287 280 237 236 252 266 264 275 272 261 250 244 248 257 262 255 255 246
154 155 113 155 167 196 226 166 176 172 176 180 152 53 332 271 242 157 113 108 142 192 208 196 182 150 212 189 243 280 225 199 188 200 245 254 244 230 203 227 247 273 295 273 275 281 279 262 252 260 259 259 247 246
134 110 91 116 189 232 215 175 78 79 53 87 9 147 210 281 303 252 181 182 202 141 128 191 227 205 203 208 192 203 268 257 214 226 233 255 197 210 226 228 214 217 228 235 252 264 262 262 260 264 272 272 273 275
111 143 125 123 156 132 87 54 103 93 357 86 272 53 348 34 271 277 224 139 136 219 222 186 198 237 204 206 190 213 195 228 238 239 251 232 233 236 235 247 248 222 234 245 250 252 256 259 265 264 268 272 269 251
77 70 82 112 132 174 187 103 54 105 27 96 253 196 211 179 219 250 281 204 205 209 210 208 208 166 171 182 194 203 224 218 244 264 279 272 293 292 286 261 285 285 273 265 262 257 252 252 258 266 267 262 263 265